EXPRESS-AM5

Last updated on Sun Sep 20 2026 00:02:57 GMT+0000 (Coordinated Universal Time)

1 39487U 13077A 26262.49112146 -.00000284 00000+0 00000+0 0 9998 2 39487 0.0282 252.5757 0002071 233.9808 188.6842 1.00272120 47307
UTC large
Height (km)
Speed (km/s)
/
Latitude / Longitude
Inclination (degrees)
Orbital Period (minutes)
Azimuth
Elevation
Range (km)
Doppler Factor

Next 0 passes for location: London (51.5072 / 0.1276)

No passes found over London.
EXPRESS-AM5